COSMOS 411

导读

**COSMOS 411卫星摘要** COSMOS 411是冷战时期苏联(CIS)于1971年5月7日发射的“宇宙”系列卫星,延续了该系列多用途航天任务传统,大概率承担军事侦察或空间技术试验任务。作为苏联太空计划的一部分,它体现了当时航天技术发展水平,是冷战美苏太空竞赛背景下的产物,最终完成任务后再入大气层销毁,为后续航天任务积累了关键经验。

基本信息
目录编号:
5210
目录名称:
COSMOS 411
国际标识:
1971-041A
轨道中心:
EARTH
卫星名称:
COSMOS 411
卫星全名:
--
卫星状态:
在轨 (已飞行20130 天)
发射日期:
1971-05-07 UTC
国别 :
俄罗斯(独联体) (CIS)
星等 :
--
轨道信息
数据来源 国际轨道数据 AOE轨道数据
星历时间 2026-06-17T19:56:22+0800
10小时前
查看轨道信息
2026-06-17T07:00:00+0800
23小时前
查看轨道信息
半长轴 7780.517km 7780.519km
偏心率 0.0112234 0.0112345
轨道倾角 74.016° 74.016°
近地点辐角 346.385° 347.249°
升交点赤经 281.966° 282.702°
平近点角 86.844° 151.560°
近地点 1315.056km 1314.971km
远地点 1489.704km 1489.793km
周期 113.834分钟 113.834分钟
每日圈数 12.649989 12.649984
详细信息
使用方式:
暂无
2D轨道图
3D轨道图
轨道高度分析图
轨道倾角分析图
轨道综合分析图
查看轨道综合分析图